This is the latest recevied weather packets stored in our database for station/object TA1FM. If no packets are shown the sender has not sent any weather packets the latest 10 day(s).
| Time | Temp. | Humidity | Pressure | Rain* | Wind** | Luminosity | Snow |
|---|---|---|---|---|---|---|---|
| 1777473500 | 14.44° C | 28% | 912.7 hPa | - | - | - | - |
| 1777472599 | 14.44° C | 28% | 912.8 hPa | - | - | - | - |
| 1777471701 | 14.44° C | 27% | 912.8 hPa | - | - | - | - |
| 1777470799 | 14.44° C | 26% | 912.9 hPa | - | - | - | - |
| 1777469899 | 14.44° C | 27% | 912.8 hPa | - | - | - | - |
| 1777468998 | 15° C | 28% | 912.8 hPa | - | - | - | - |
| 1777468098 | 15° C | 29% | 912.8 hPa | - | - | - | - |
| 1777467198 | 15° C | 30% | 913 hPa | - | - | - | - |
| 1777466300 | 15° C | 29% | 913 hPa | - | - | - | - |
| 1777465396 | 15° C | 27% | 913.1 hPa | - | - | - | - |
| 1777464496 | 15° C | 27% | 913.2 hPa | - | - | - | - |
| 1777463596 | 15° C | 28% | 913.2 hPa | - | - | - | - |
| 1777462702 | 15° C | 28% | 913.3 hPa | - | - | - | - |
| 1777461795 | 15° C | 30% | 913.3 hPa | - | - | - | - |
| 1777460895 | 13.89° C | 32% | 913.4 hPa | - | - | - | - |
| 1777436644 | 8.89° C | 28% | 913 hPa | - | - | - | - |
| 1777435743 | 8.33° C | 31% | 912.8 hPa | - | - | - | - |
| 1777434843 | 8.33° C | 40% | 913.9 hPa | - | - | - | - |
| 1777433943 | 8.89° C | 47% | 912.7 hPa | - | - | - | - |
| 1777432290 | 8.89° C | 53% | 912.5 hPa | - | - | - | - |
| 1777432144 | 8.89° C | 53% | 912.5 hPa | - | - | - | - |
| 1777431243 | 8.89° C | 54% | 912.5 hPa | - | - | - | - |
| 1777430343 | 8.89° C | 55% | 912.4 hPa | - | - | - | - |
| 1777429442 | 8.89° C | 55% | 912.4 hPa | - | - | - | - |
| 1777428542 | 8.89° C | 54% | 912.5 hPa | - | - | - | - |
* Rain since midnight (hover to see other rain measurements)
** Current wind speed in m/s (hover to see current wind gust speed)